Location: Caser�o Gudillos
(40.7144°N, 4.1626°W)
Time: 09:54:07
(UTC+00:00)

Daily predictions for brighter satellites

Satellite Brightness Start Highest point End
(mag) Time Altitude Azimuth Time Altitude Azimuth Time Altitude Azimuth
ATLAS CENTAUR Rocket 4.3 18:58:44 10° SW 19:04:01 39° SSE 19:26:47 10° E
H-2A R/B 2.9 19:00:33 10° SE 19:05:12 32° ENE 19:09:46 10° N
STARLINK-1269 3.5 19:03:51 10° SW 19:07:53 79° SE 19:11:56 10° NE
Okean 1 Rocket 3.9 19:04:34 10° SSW 19:08:51 55° W 19:13:09 10° N
STARLINK-1118 2.9 19:07:27 10° NW 19:09:30 33° NE 19:11:31 10° ESE
Cosmos 1544 Rocket 4.4 19:06:55 10° SSE 19:10:41 29° E 19:14:29 10° NNE
STARLINK-1200 3.5 19:08:32 10° SW 19:12:34 86° SE 19:16:38 10° NE
NOSS 0 Rocket 4.5 19:06:37 10° SW 19:12:47 66° WNW 19:18:57 10° NNE
HJ-1C 3.5 19:09:53 10° SSE 19:13:09 55° ENE 19:16:27 10° N
Cosmos 1745 Rocket 4.1 19:08:33 10° N 19:14:48 62° E 19:20:57 10° SSE
STARLINK-1192 3.6 19:13:10 10° SW 19:17:13 87° NW 19:21:17 10° NE
USA 234 3.4 19:11:48 10° NE 19:18:11 53° SE 19:24:32 10° SSW
Cosmos 2237 Rocket 2.5 19:13:16 10° SSW 19:18:51 72° WNW 19:24:29 10° NNE
Cosmos 1805 3.2 19:15:18 10° S 19:19:12 83° E 19:23:08 10° N
Meteor 2-5 Rocket 3.7 19:14:27 10° N 19:20:06 70° E 19:25:38 10° SSE
STARLINK-1244 3.7 19:17:58 10° SW 19:22:00 80° NW 19:26:04 10° NE
STARLINK-1201 4.2 19:19:25 10° WSW 19:22:32 41° NNW 19:25:39 10° NE
ADEOS Rocket 3.7 19:16:19 10° N 19:23:01 65° WNW 19:28:59 10° SSW
Cosmos 1269 Rocket 4.1 19:21:12 10° S 19:26:19 56° ESE 19:31:30 10° NNE
STARLINK-1138 3.8 19:22:40 10° WSW 19:26:43 74° NW 19:30:46 10° NE
ATLAS 3B CENTAUR R/B 4.2 19:23:46 10° WSW 19:26:51 13° SW 19:29:11 10° S
Cosmos 2278 Rocket 2.7 19:22:37 10° NNW 19:28:15 65° WSW 19:33:50 10° S
CZ-2C R/B 3.9 19:26:26 10° NE 19:29:49 17° E 19:32:38 12° SE
Cosmos 1553 Rocket 4.4 19:24:01 10° SSW 19:30:02 68° W 19:36:07 10° N
STARLINK-1066 3.8 19:27:20 10° NW 19:30:19 36° NNE 19:32:18 17° E
STARLINK-1081 3.8 19:27:49 10° NW 19:30:45 36° NNE 19:32:41 17° E
STARLINK-1070 3.8 19:28:16 10° NW 19:31:11 36° NNE 19:33:06 18° E
STARLINK-1143 3.9 19:27:27 10° WSW 19:31:30 68° NW 19:35:32 10° NE
STARLINK-1069 3.7 19:28:40 10° NW 19:31:38 36° NNE 19:33:34 18° E
STARLINK-1085 3.7 19:29:07 10° NW 19:32:05 37° NNE 19:34:00 18° E
STARLINK-1086 3.7 19:29:36 10° NW 19:32:33 37° NNE 19:34:25 18° E
CZ-4 R/B 3.9 19:29:41 10° SSW 19:32:52 24° W 19:36:02 10° NW
STARLINK-1095 3.7 19:30:03 10° NW 19:33:00 37° NNE 19:34:50 19° E
ARGOS 3.5 19:28:04 10° SE 19:33:14 47° ENE 19:38:23 10° N
STARLINK-1077 3.7 19:30:30 10° NW 19:33:26 37° NNE 19:35:16 19° E
STARLINK-1075 3.7 19:30:57 10° NW 19:33:54 38° NNE 19:35:42 19° E
STARLINK-1093 3.7 19:31:21 10° NW 19:34:21 38° NNE 19:36:10 19° E
STARLINK-1074 3.7 19:31:48 10° NW 19:34:47 39° NNE 19:36:36 19° E
STARLINK-1087 3.6 19:32:18 10° NW 19:35:15 39° NNE 19:37:00 20° E
Meteor 1-24 Rocket 3.6 19:29:56 10° N 19:35:27 69° E 19:40:46 10° SSE
STARLINK-1088 3.6 19:32:44 10° NW 19:35:42 39° NNE 19:37:26 20° E
STARLINK-1115 3.6 19:33:09 10° NW 19:36:10 40° NNE 19:37:55 20° E
STARLINK-1076 3.6 19:33:35 10° NW 19:36:36 40° NNE 19:38:20 21° E
STARLINK-1092 3.6 19:34:03 10° NW 19:37:04 40° NNE 19:38:47 21° E
MOS 1 4.4 19:32:01 10° SSE 19:37:31 56° ENE 19:43:02 10° N
STARLINK-1080 3.5 19:34:32 10° NW 19:37:31 40° NNE 19:39:10 21° E
STARLINK-1090 3.5 19:34:58 10° NW 19:37:58 41° NE 19:39:36 22° E
STARLINK-1089 3.5 19:35:26 10° NW 19:38:25 41° NNE 19:40:02 22° E
STARLINK-1107 3.5 19:35:52 10° NW 19:38:52 42° NE 19:40:28 22° E
Cosmos 1470 3.4 19:36:02 10° SSE 19:39:32 33° E 19:43:03 10° NNE
STARLINK-1241 4.2 19:38:00 10° WSW 19:41:57 55° NW 19:45:54 10° NE
Cosmos 2315 Rocket 4.1 19:37:28 10° SSE 19:43:34 55° E 19:49:44 10° NNE
STARLINK-1122 4.3 19:40:15 10° NW 19:44:03 39° NNE 19:46:17 21° E
SL-08 RB Rocket 4.2 19:40:53 14° SE 19:44:24 39° ENE 19:48:39 10° N
SJ-6B 3.2 19:42:00 12° SE 19:45:29 47° ENE 19:49:27 10° N
ISS -1.2 19:44:05 10° NNW 19:45:53 14° N 19:47:42 10° NE
STARLINK-1239 4.3 19:42:37 10° WSW 19:46:32 51° NW 19:50:28 10° NE
Cosmos 1758 3.8 19:43:35 10° SSE 19:47:24 39° E 19:51:14 10° NNE
STARLINK-1126 4.2 19:44:51 10° NW 19:48:42 42° NNE 19:50:45 23° E
STARLINK-1240 4.5 19:47:16 10° WSW 19:51:10 48° NNW 19:55:04 10° NE
IRS-1A Rocket 4.3 19:45:50 10° SSE 19:51:27 89° WSW 19:57:14 10° NNW
CZ-2C R/B 2.9 19:46:45 10° SSE 19:51:52 73° ENE 19:56:45 10° N
STARLINK-1082 4.1 19:49:24 10° NW 19:53:17 45° NNE 19:55:08 26° E
Cosmos 304 Rocket 3.8 19:48:36 10° NNW 19:53:24 86° WSW 19:58:11 10° SSE
Abrixas rocket 2.3 19:51:01 10° SW 19:53:50 41° SE 19:54:14 38° ESE
Resurs 01 Rocket 2.9 19:53:05 21° E 19:53:51 22° ENE 19:57:13 10° NNE
FREGAT/IRIS 2.2 19:52:27 17° S 19:54:24 87° W 19:57:07 10° NNW
Cosmos 2369 Rocket 3.6 19:51:40 10° N 19:55:59 22° NE 19:57:50 18° ENE
Cosmos 1733 4.0 19:52:23 10° SSW 19:56:03 52° W 19:59:46 10° N
STARLINK-1100 4.0 19:53:57 10° NW 19:57:52 48° NNE 19:59:31 29° E
Meteor 1-22 Rocket 4.5 19:52:51 10° SSW 19:58:08 66° W 20:03:24 10° N
STARLINK-1083 3.9 19:58:32 10° NW 20:02:30 52° NE 20:03:57 33° E
Cosmos 1726 4.4 20:06:30 12° NE 20:06:30 12° NE 20:06:53 10° NE
SPOT 3 Rocket 3.7 20:00:43 20° SE 20:04:11 54° ENE 20:09:17 10° N
MONITOR-E 4.3 20:04:58 24° S 20:06:18 56° W 20:08:55 10° NNW
STARLINK-1125 3.8 20:03:08 10° NW 20:07:07 56° NE 20:08:23 38° E
SL-14 R/B 3.4 20:03:22 10° N 20:07:25 80° W 20:11:03 12° S
Cosmos 1331 Rocket 4.4 20:04:24 10° NNW 20:09:29 63° WSW 20:14:33 10° S
Meteor 2-15 4.3 20:04:57 10° S 20:11:00 81° E 20:17:04 10° N
STARLINK-1109 3.7 20:07:26 10° NW 20:11:27 60° NE 20:12:32 42° E
Cosmos 1709 Rocket 4.0 20:06:13 10° N 20:12:27 87° W 20:18:34 10° S
MOS 1 Rocket 3.8 20:09:59 10° NNE 20:15:04 48° E 20:19:07 16° SSE
STARLINK-1091 3.6 20:12:06 10° NW 20:16:08 66° NE 20:17:02 48° E
Ariane Rocket 4.1 20:14:54 10° S 20:19:43 43° W 20:24:34 10° NNW
Cosmos 1943 Rocket 2.7 20:16:22 10° N 20:21:37 41° ENE 20:22:52 36° E
USA 186 3.5 20:20:54 10° SSW 20:24:04 34° W 20:27:13 10° NNW
Cosmos 2074 Rocket 4.3 20:18:51 10° N 20:24:53 47° ENE 20:26:46 37° ESE
STARLINK-1072 3.3 20:25:06 10° NW 20:29:06 84° NE 20:29:27 73° ESE
Cosmos 1953 2.2 20:29:29 64° ENE 20:29:29 64° ENE 20:33:13 10° NNE
Meteor 2-10 4.2 20:28:33 41° SE 20:29:51 51° E 20:35:09 10° NNE
NOSS 3-3 (A) 4.0 20:24:46 10° S 20:30:14 48° ESE 20:36:18 10° NE
NOSS 3-3 (C) 4.0 20:24:53 10° S 20:30:21 48° ESE 20:36:23 10° NE
IRIDIUM 106 4.2 20:25:44 10° N 20:30:57 71° E 20:32:57 38° SSE
Cosmos 1626 Rocket 3.8 20:27:42 10° NNW 20:32:04 66° W 20:34:23 26° S
Cosmos 1626 3.5 20:28:51 10° NNW 20:32:17 37° W 20:34:58 15° SSW
SL-16 R/B 3.1 20:27:11 10° SW 20:32:39 49° WNW 20:38:10 10° NNE
Spot 2 Rocket 4.4 20:33:06 31° ENE 20:33:06 31° ENE 20:37:17 10° N
TSX-5 3.9 20:28:02 10° NNW 20:33:13 81° ENE 20:33:49 65° SE
STARLINK-1096 3.3 20:29:33 10° NW 20:33:35 89° SSW 20:33:44 82° SE
Cosmos 2084 Rocket 4.4 20:31:18 10° NNW 20:35:19 34° NE 20:35:19 34° NE
STARLINK-1079 3.4 20:34:03 10° NW 20:38:03 82° SW 20:38:03 82° SW
Cosmos 1602 Rocket 3.7 20:35:14 10° NNW 20:39:41 72° W 20:41:06 42° SSW
Aureole 3 3.5 20:38:26 38° SSW 20:39:51 75° W 20:44:38 10° N
STARLINK-1116 3.6 20:38:32 10° NW 20:42:22 74° WSW 20:42:22 74° WSW
Aureole 2 Rocket 4.3 20:41:11 10° N 20:42:44 22° N 20:42:44 22° N
H-2A R/B 3.7 20:39:47 10° SSW 20:44:32 32° W 20:49:13 10° NNW
DMSP B5D2-2 4.2 20:43:01 10° N 20:48:14 73° WNW 20:53:25 10° SSW
STARLINK-1094 4.0 20:47:32 10° WNW 20:51:01 56° W 20:51:01 56° W
Cosmos 1603 3.5 20:53:26 61° SSE 20:54:15 71° ESE 20:59:51 10° NNE
Meteor 1-16 Rocket 3.9 20:54:16 73° ESE 20:54:29 74° E 20:59:54 10° NNE
ATLAS 2AS CENTAUR R/B 4.0 20:49:29 10° NNW 20:55:54 28° NE 20:57:41 25° ENE
STARLINK-1117 4.3 20:52:05 10° WNW 20:55:22 49° W 20:55:22 49° W
Cosmos 1825 Rocket 4.3 20:54:41 10° N 20:57:49 44° NNE 20:57:49 44° NNE
MetOp-B 4.1 21:01:14 64° NE 21:01:14 64° NE 21:06:17 10° N
USA 234 4.1 20:54:53 10° NE 21:01:07 49° NNW 21:07:21 10° WSW
Cosmos 2327 Rocket 4.4 20:56:52 10° N 21:03:07 65° E 21:03:23 64° E
Cosmos 1758 Rocket 4.2 21:04:01 10° N 21:07:20 50° NNW 21:07:20 50° NNW
CZ-2C R/B 3.2 21:05:23 10° N 21:10:26 54° WNW 21:14:09 18° SW
Cosmos 1992 Rocket 4.0 21:05:55 10° NNW 21:10:43 76° NNW 21:10:43 76° NNW
Cosmos 2251 Rocket 4.1 21:10:01 10° SSW 21:15:15 57° WNW 21:20:34 10° N
Cosmos 2184 Rocket 4.1 21:09:24 10° N 21:15:44 74° W 21:17:03 56° SSW
Meteor 2-17 Rocket 4.4 21:15:23 10° N 21:21:00 71° NE 21:21:00 71° NE
ISS -0.7 21:20:25 10° NW 21:21:09 15° NNW 21:21:09 15° NNW
ERS-1 Rocket 4.4 21:28:47 29° NNE 21:28:47 29° NNE 21:31:23 10° N
Resurs 01 Rocket 3.1 21:30:38 33° W 21:30:38 33° W 21:34:09 10° NNW
Cosmos 2154 Rocket 4.0 21:30:18 10° N 21:36:22 77° WNW 21:36:22 77° WNW
Cosmos 2369 Rocket 2.7 21:34:50 10° NNW 21:39:39 54° WNW 21:39:39 54° WNW
Cosmos 1943 4.3 22:01:06 40° NNW 22:01:06 40° NNW 22:05:31 10° NNE
Cosmos 1943 Rocket 3.9 22:00:32 10° NW 22:04:25 26° W 22:04:25 26° W
NOSS 3-4 (A) 4.4 22:07:55 10° NNW 22:13:24 52° N 22:13:24 52° N
NOSS 3-4 (C) 4.4 22:08:01 10° NNW 22:13:29 52° N 22:13:29 52° N
Terra 4.4 22:28:29 17° NNW 22:28:29 17° NNW 22:29:33 10° NNW
ATLAS 2AS CENTAUR R/B 3.7 22:40:13 10° NW 22:45:07 44° NW 22:45:07 44° NW
